Погода в Зимнике

Россия / Кемеровская область (Кузбасс)     55°39′47″N   84°55′26″E
темп.,
°C
ветер,
м/с
пор.,
м/с
влажн.,
%
обл.,
%
осадки,
мм/ч
давл.,
гПа
погр.,
м
28 февраля, вс
вс2801:00−27юз369798 0.0 1038104
04:00−29ююз349799 0.0 103863
07:00−30ю349696 0.0 103957
10:00−27ю4795100 0.0 1038206
13:00−22ю359399 0.0 1036278
16:00−19ююв358981 0.0 1033374
19:00−20вюв349691 0.0 103175
22:00−20вюв3596100 0.0 102988
1 марта, пн
пн101:00−16вюв3496100 0.3 1025103
04:00−15в3695100 0.1 1022138
07:00−13в4795100 0.5 1019243
10:00−11в4795100 0.8 1016246
13:00−8в4794100 1.6 1012361
16:00−6в6995100 1.0 1010457
19:00−9всв71394100 3.3 1009367
22:00−10всв61194100 1.8 1008364
2 марта, вт
вт201:00−11всв5995100 3.2 1008339
04:00−13ссв4894100 0.9 1009333
07:00−16ссв359697 1.1 1012184
10:00−16св349487 0.2 1014239
13:00−14с118792 0.3 1016376
16:00−13зсз2187100 0.1 1017352
19:00−16з1194100 0.1 101820
22:00−16в1295100 0.0 101826
3 марта, ср
ср301:00−15юв1296100 0.1 101835
04:00−16в119782 0.1 101721
07:00−17в229680 0.2 101821
10:00−16в129575 0.0 101886
13:00−12ююв128883 0.1 1018366
16:00−10ююз1285100 0.1 1018424
19:00−13с119595 0.1 102020
22:00−13ююв129690 0.1 102120
4 марта, чт
чт401:00−15юз369588 0.2 102297
04:00−16ю369575 0.0 1023108
07:00−18ю479572 0.0 1024130
10:00−15ю5119081 0.0 1023348
13:00−10ю6118990 0.0 1022539
16:00−7ю61085100 0.0 1020730
19:00−7ю51188100 0.1 1019506
22:00−8ю61386100 0.0 1018485